Location: Eurasberg
(48.3353°N, 11.0839°E)
Time: 19:08:08
(UTC+00:00)

Cosmos 1328 - Pass Details

Date: 18 January 2026
Orbit: 460 x 472 km, 82.5° (Epoch: 13 February)

Event Time Altitude Azimuth Distance (km) Brightness Sun altitude
Exits shadow 05:59:56 - 343° (NNW) 2,333 6.7 -9.8°
Reaches altitude 10° 06:01:37 10° 337° (NNW) 1,648 5.9 -9.5°
Maximum altitude 06:05:01 41° 266° (W) 704 3.9 -9.0°
Drops below altitude 10° 06:08:24 10° 196° (SSW) 1,640 6.3 -8.5°
Sets 06:10:33 0° 189° (S) 2,514 7.4 -8.2°
